Location: Dehesa de la Cepeda
(40.6574°N, 4.3013°W)
Time: 11:18:36
(UTC+00:00)

Vanguard 2 Rocket - Visible Passes

Search period start: 23 October 2021 00:00
Search period end: 02 November 2021 00:00
Orbit: 556 x 3323 km, 32.9° (Epoch: 22 October)

Date Brightness Start Highest point End Pass type
(mag) Time Alt. Az. Time Alt. Az. Time Alt. Az.
23 Oct 10.2 03:29:09 10° SSW 03:39:31 20° SSE 03:47:13 10° ESE visible
23 Oct 9.2 05:42:25 10° SW 05:54:26 38° SSE 06:01:42 10° E visible
24 Oct 10.5 02:32:26 13° S 02:38:40 16° SSE 02:45:46 10° ESE visible
24 Oct 9.6 04:40:55 10° SW 04:53:59 34° SSE 05:02:17 10° E visible
25 Oct 10.8 01:36:51 11° SE 01:37:40 11° SE 01:41:12 10° SE visible
25 Oct 9.9 03:42:43 15° SSW 03:53:16 30° SSE 04:02:27 10° E visible
25 Oct 9.0 05:55:10 10° WSW 06:08:14 47° S 06:15:50 10° E visible
26 Oct 10.2 02:46:59 21° S 02:52:19 25° SSE 03:02:00 10° ESE visible
26 Oct 9.3 04:53:12 10° SW 05:07:46 44° SSE 05:16:33 10° E visible
27 Oct 10.5 01:51:09 19° SE 01:51:13 19° SE 02:00:32 10° ESE visible
27 Oct 9.6 03:56:59 21° SSW 04:06:57 39° SSE 04:16:58 10° E visible
27 Oct 8.8 06:08:18 10° WSW 06:22:01 54° S 06:29:48 10° ESE visible
28 Oct 10.8 00:55:12 12° ESE 00:55:12 12° ESE 00:56:59 10° ESE visible
28 Oct 9.9 03:01:02 30° S 03:05:54 34° SSE 03:16:55 10° E visible
28 Oct 9.1 05:06:51 12° WSW 05:21:29 52° S 05:30:36 10° E visible
29 Oct 10.2 02:04:58 28° SSE 02:04:58 28° SSE 02:16:15 10° E visible
29 Oct 9.3 04:10:48 26° SW 04:20:37 49° SSE 04:31:07 10° E visible
30 Oct 10.5 01:08:51 19° ESE 01:08:51 19° ESE 01:14:35 10° E visible
30 Oct 9.6 03:14:39 38° S 03:19:26 44° SSE 03:31:17 10° E visible
30 Oct 9.0 05:20:27 13° WSW 05:35:12 58° S 05:44:31 10° E visible
31 Oct 9.9 02:18:26 38° SSE 02:18:26 38° SSE 02:30:57 10° E visible
31 Oct 9.2 04:24:14 28° SW 04:34:16 56° S 04:45:06 10° E visible
01 Nov 10.3 01:22:09 27° ESE 01:22:09 27° ESE 01:29:58 10° E visible
01 Nov 9.4 03:27:56 44° SSW 03:32:59 53° SSE 03:45:21 10° E visible
01 Nov 8.9 05:33:44 13° WSW 05:48:54 61° S 05:58:22 10° ESE visible
